HI8EES-16 Weather Reports


time (UTC)temp
C
wind
direction
speed
KPH
gust
KPH
rain 1hr
cm
rain 24hr
cm
rain mn
cm
humidity
%
barometer
mb
20260503053512 22 12 1.6 1.6 0.00 0.00 0.00 88 1018.0
20260503052511 22 12 1.6 1.6 0.00 0.00 0.00 88 1018.0
20260503051509 22 12 1.6 1.6 0.00 0.00 0.00 88 1019.0
20260503050507 22 12 1.6 1.6 0.00 0.00 0.00 88 1019.0
20260503045505 22 12 1.6 1.6 0.00 0.00 0.00 88 1019.0
20260503044504 22 12 1.6 1.6 0.00 0.00 0.00 88 1019.0
20260503043503 22 12 1.6 1.6 0.00 0.00 0.00 88 1019.0
20260503042501 22 12 1.6 1.6 0.00 0.00 0.00 88 1019.0
20260503041500 22 12 1.6 1.6 0.00 0.00 0.00 88 1018.0
20260503040459 22 12 1.6 1.6 0.00 0.00 0.00 88 1018.0
20260503035458 22 12 1.6 1.6 0.00 0.00 0.00 88 1019.0
20260503034456 22 12 1.6 1.6 0.00 0.00 0.00 88 1019.0
20260503033455 22 12 1.6 1.6 0.00 0.00 0.00 88 1019.0
20260503032453 22 12 1.6 1.6 0.00 0.00 0.00 88 1018.0
20260503031452 22 12 1.6 1.6 0.00 0.00 0.00 88 1018.0
20260503030450 22 12 1.6 1.6 0.00 0.00 0.00 88 1018.0
20260503025448 22 12 1.6 1.6 0.00 0.00 0.00 88 1019.0
20260503024446 22 12 1.6 1.6 0.00 0.00 0.00 88 1019.0
20260503023445 22 12 1.6 1.6 0.00 0.00 0.00 88 1019.0
20260503022444 22 12 1.6 1.6 0.00 0.00 0.00 88 1018.0
20260503021442 22 12 1.6 1.6 0.00 0.00 0.00 88 1018.0
20260503020441 22 12 1.6 1.6 0.00 0.00 0.00 88 1018.0
20260503015439 22 12 1.6 1.6 0.00 0.00 0.00 88 1018.0
20260503014438 22 12 1.6 1.6 0.00 0.00 0.00 88 1018.0
20260503013437 22 12 1.6 1.6 0.00 0.00 0.00 88 1018.0
20260503012435 22 66 0.0 3.2 0.00 0.00 0.00 88 1018.0
20260503011433 22 66 0.0 3.2 0.00 0.00 0.00 88 1018.0
20260503010431 22 66 0.0 3.2 0.00 0.00 0.00 88 1018.0
20260503005430 22 66 0.0 3.2 0.00 0.00 0.00 88 1018.0
20260503004429 23 66 0.0 3.2 0.00 0.00 0.00 88 1017.0
20260503003427 23 85 1.6 1.6 0.00 0.00 0.00 85 1017.0
20260503002426 23 85 1.6 1.6 0.00 0.00 0.00 85 1016.0
20260503001425 23 85 1.6 1.6 0.00 0.00 0.00 85 1016.0
20260503000415 23 85 1.6 1.6 0.00 0.00 0.00 85 1016.0
20260502235410 23 85 1.6 1.6 0.00 0.00 0.00 85 1016.0
20260502234409 23 85 1.6 3.2 0.00 0.00 0.00 85 1016.0
20260502233407 25 109 1.6 4.8 0.00 0.00 0.00 79 1016.0
20260502232406 25 109 1.6 4.8 0.00 0.00 0.00 79 1016.0
20260502231405 25 109 1.6 4.8 0.00 0.00 0.00 79 1016.0
20260502230403 25 109 1.6 4.8 0.00 0.00 0.00 79 1016.0
20260502225402 25 109 1.6 4.8 0.00 0.00 0.00 79 1016.0
20260502224401 25 109 3.2 4.8 0.00 0.00 0.00 79 1016.0
20260502223359 26 115 4.8 6.4 0.00 0.00 0.00 67 1016.0
20260502222358 26 115 4.8 6.4 0.00 0.00 0.00 67 1015.0
20260502221357 26 115 4.8 6.4 0.00 0.00 0.00 67 1015.0
20260502220355 26 115 4.8 6.4 0.00 0.00 0.00 67 1015.0
20260502215353 26 115 4.8 6.4 0.00 0.00 0.00 67 1015.0
20260502214352 26 115 4.8 6.4 0.00 0.00 0.00 67 1015.0
20260502213351 26 115 4.8 6.4 0.00 0.00 0.00 67 1015.0
20260502212349 26 115 4.8 6.4 0.00 0.00 0.00 67 1015.0
20260502211348 26 115 4.8 6.4 0.00 0.00 0.00 67 1015.0
20260502210347 26 115 4.8 6.4 0.00 0.00 0.00 67 1015.0
20260502205345 26 115 4.8 6.4 0.00 0.00 0.00 67 1015.0
20260502204344 26 115 4.8 6.4 0.00 0.00 0.00 67 1015.0
20260502203343 26 115 4.8 6.4 0.00 0.00 0.00 67 1015.0
20260502202341 26 115 4.8 6.4 0.00 0.00 0.00 67 1015.0
20260502201339 26 115 4.8 6.4 0.00 0.00 0.00 67 1015.0
20260502200338 26 115 4.8 6.4 0.00 0.00 0.00 67 1015.0
20260502195337 26 115 4.8 6.4 0.00 0.00 0.00 67 1015.0
20260502194335 26 115 4.8 6.4 0.00 0.00 0.00 67 1015.0
20260502193334 26 115 4.8 6.4 0.00 0.00 0.00 67 1015.0
20260502192333 26 115 4.8 6.4 0.00 0.00 0.00 67 1015.0
20260502191331 26 115 4.8 6.4 0.00 0.00 0.00 67 1015.0
20260502190330 26 115 4.8 6.4 0.00 0.00 0.00 67 1015.0
20260502185328 26 115 4.8 6.4 0.00 0.00 0.00 67 1015.0
20260502184327 26 115 4.8 6.4 0.00 0.00 0.00 67 1015.0
20260502183326 26 115 4.8 6.4 0.00 0.00 0.00 67 1015.0
20260502182325 26 115 4.8 6.4 0.00 0.00 0.00 67 1016.0
20260502181323 26 115 4.8 6.4 0.00 0.00 0.00 67 1016.0
20260502180322 26 115 4.8 6.4 0.00 0.00 0.00 67 1016.0
20260502170313 26 115 4.8 6.4 0.00 0.00 0.00 67 1017.0
20260502164310 26 115 4.8 6.4 0.00 0.00 0.00 67 1017.0
20260502163308 26 115 4.8 6.4 0.00 0.00 0.00 67 1017.0
20260502162307 26 115 4.8 6.4 0.00 0.00 0.00 67 1017.0
20260502161306 26 115 4.8 6.4 0.00 0.00 0.00 67 1017.0
20260502160304 26 115 4.8 6.4 0.00 0.00 0.00 67 1017.0
20260502152258 26 115 4.8 6.4 0.00 0.00 0.00 67 1017.0
20260502151257 26 115 4.8 6.4 0.00 0.00 0.00 67 1017.0
20260502150256 26 115 4.8 6.4 0.00 0.00 0.00 67 1017.0
20260502130239 22 90 1.6 4.8 0.00 0.00 0.00 81 1017.0
20260502123235 20 55 1.6 4.8 0.00 0.00 0.00 90 1017.0
20260502122234 20 55 1.6 4.8 0.00 0.00 0.00 90 1017.0
20260502121233 20 55 1.6 4.8 0.00 0.00 0.00 90 1017.0
20260502120231 20 55 1.6 4.8 0.00 0.00 0.00 90 1017.0
20260502115230 20 55 1.6 4.8 0.00 0.00 0.00 90 1017.0
20260502114229 20 55 3.2 4.8 0.00 0.00 0.00 90 1017.0
20260502113227 18 13 1.6 1.6 0.00 0.00 0.00 96 1017.0
20260502112225 18 13 1.6 1.6 0.00 0.00 0.00 96 1016.0
20260502111224 18 13 1.6 1.6 0.00 0.00 0.00 96 1016.0
20260502110222 18 13 1.6 1.6 0.00 0.00 0.00 96 1016.0
20260502105221 18 13 1.6 1.6 0.00 0.00 0.00 96 1017.0
20260502104220 18 13 1.6 1.6 0.00 0.00 0.00 96 1017.0
20260502103218 18 13 1.6 1.6 0.00 0.00 0.00 96 1017.0
20260502102217 18 13 1.6 1.6 0.00 0.00 0.00 96 1016.0
20260502101216 18 13 1.6 1.6 0.00 0.00 0.00 96 1016.0
20260502100214 18 13 1.6 1.6 0.00 0.00 0.00 96 1017.0
20260502091207 22 39 1.6 1.6 0.00 0.00 0.00 81 1016.0
20260502090204 22 39 1.6 1.6 0.00 0.00 0.00 81 1016.0
20260502071148 22 39 1.6 1.6 0.00 0.00 0.00 81 1015.0
20260502070145 22 39 1.6 1.6 0.00 0.00 0.00 81 1016.0
20260502065143 22 39 1.6 1.6 0.00 0.00 0.00 81 1016.0
20260502064142 22 39 1.6 1.6 0.00 0.00 0.00 81 1016.0
20260502063141 22 39 1.6 1.6 0.00 0.00 0.00 81 1016.0
20260502062139 22 39 1.6 1.6 0.00 0.00 0.00 81 1016.0
20260502061138 22 39 1.6 1.6 0.00 0.00 0.00 81 1016.0
20260502060136 22 39 1.6 1.6 0.00 0.00 0.00 81 1016.0
20260502055133 22 39 1.6 1.6 0.00 0.00 0.00 81 1016.0
20260502054130 22 39 1.6 1.6 0.00 0.00 0.00 81 1016.0